Location: Saint Louis
(38.6272°N, 90.1978°W)
Time: 18:35:52
(UTC-05:00)

HST - Visible Passes

Search period start: 30 October 2014 00:00
Search period end: 08 November 2014 23:00
Orbit: 546 x 550 km, 28.5° (Epoch: 30 October)

Date Brightness Start Highest point End Pass type
(mag) Time Alt. Az. Time Alt. Az. Time Alt. Az.
30 Oct 2.7 19:10:38 10° SW 19:13:45 20° S 19:16:22 12° SE visible
31 Oct 2.8 19:03:13 10° SW 19:06:18 20° S 19:09:24 10° SE visible
31 Oct 3.8 20:44:58 10° SW 20:45:03 10° SW 20:45:03 10° SW visible
01 Nov 2.9 18:55:50 10° SW 18:58:52 19° S 19:01:53 10° SE visible
01 Nov 3.8 20:38:12 10° SW 20:38:13 10° SW 20:38:13 10° SW visible
02 Nov 3.1 17:48:31 10° SW 17:51:24 18° S 17:54:17 10° SE visible
03 Nov 3.2 17:41:15 10° SW 17:43:55 17° S 17:46:36 10° SSE visible
04 Nov 3.4 17:34:05 10° SW 17:36:26 15° SSW 17:38:46 10° SSE visible
05 Nov 3.5 17:27:06 10° SW 17:28:55 13° SSW 17:30:44 10° S visible
06 Nov 3.8 17:20:42 10° SSW 17:21:23 10° SSW 17:22:04 10° S visible
